{"data":{"norad_id":64110,"epoch":"2026-05-25T02:41:47.863392Z","epoch_age_seconds":61229,"freshness":"FRESH","line1":"1 64110U 25110Q   26145.11235953  .00025676  00000+0  76846-3 0  9997","line2":"2 64110  53.1583  31.0417 0000993  77.9215 282.1899 15.34399355 57599","mean_motion":15.34399355,"eccentricity":9.93e-5,"inclination_deg":53.1583,"raan_deg":31.0417,"arg_perigee_deg":77.9215,"mean_anomaly_deg":282.1899,"bstar":0.00076846,"rev_number":5759,"period_min":93.847797531171,"perigee_km":462.02586165749,"apogee_km":463.38445290992,"semimajor_km":6840.8421572837,"source":"CELESTRAK","updated_at":"2026-05-25T13:38:20.266919Z"}}